• In Switzerland
  • List of Countries
  • For 7 days
  • Water Temperature
  • Satellite Maps
  • Weather Map
  • Weather Widgets
  • user-avatar
    Login

    Hourly Weather Mulhule

    Today, 18 June, Monday

    Time Temperature Precipitation Wind Pressure Humidity
    00:00 +38°C° 0 mm 3 mps 753 mmHg 33%
    01:00 +37°C° 0 mm 2 mps 753 mmHg 34%
    02:00 +37°C° 0 mm 2 mps 753 mmHg 35%
    03:00 +36°C° 0 mm 1 mps 752 mmHg 38%
    04:00 +36°C° 0 mm 1 mps 753 mmHg 37%
    05:00 +36°C° 0 mm 1 mps 753 mmHg 37%
    06:00 +34°C° 0 mm 0 mps 753 mmHg 36%
    07:00 +36°C° 0 mm 1 mps 753 mmHg 34%
    08:00 +38°C° 0 mm 2 mps 754 mmHg 32%
    09:00 +39°C° 0 mm 3 mps 754 mmHg 29%
    10:00 +41°C° 0 mm 4 mps 754 mmHg 28%
    11:00 +42°C° 0 mm 4 mps 753 mmHg 27%
    12:00 +43°C° 0 mm 5 mps 753 mmHg 25%
    13:00 +45°C° 0 mm 5 mps 753 mmHg 25%
    14:00 +45°C° 0 mm 5 mps 752 mmHg 25%
    15:00 +45°C° 0 mm 5 mps 752 mmHg 24%
    16:00 +45°C° 0 mm 5 mps 752 mmHg 26%
    17:00 +43°C° 0 mm 5 mps 751 mmHg 27%
    18:00 +42°C° 0 mm 5 mps 751 mmHg 29%
    19:00 +42°C° 0 mm 5 mps 752 mmHg 31%
    20:00 +41°C° 0 mm 5 mps 752 mmHg 32%
    21:00 +40°C° 0 mm 4 mps 752 mmHg 34%
    22:00 +40°C° 0 mm 4 mps 752 mmHg 34%
    23:00 +40°C° 0 mm 4 mps 752 mmHg 34%

    Tomorrow, 19 June, Tuesday

    Time Temperature Precipitation Wind Pressure Humidity
    00:00 +40°C° 0 mm 4 mps 752 mmHg 34%
    01:00 +38°C° 0 mm 4 mps 752 mmHg 37%
    02:00 +37°C° 0 mm 4 mps 752 mmHg 41%
    03:00 +37°C° 0 mm 4 mps 752 mmHg 44%
    04:00 +36°C° 0 mm 4 mps 752 mmHg 45%
    05:00 +36°C° 0 mm 4 mps 752 mmHg 46%
    06:00 +36°C° 0 mm 4 mps 753 mmHg 48%
    07:00 +37°C° 0 mm 5 mps 753 mmHg 44%
    08:00 +39°C° 0 mm 5 mps 754 mmHg 41%
    09:00 +40°C° 0 mm 5 mps 754 mmHg 38%
    10:00 +41°C° 0 mm 5 mps 754 mmHg 35%
    11:00 +42°C° 0 mm 5 mps 754 mmHg 32%
    12:00 +45°C° 0 mm 5 mps 754 mmHg 29%
    13:00 +45°C° 0 mm 6 mps 753 mmHg 29%
    14:00 +45°C° 0 mm 6 mps 752 mmHg 29%
    15:00 +45°C° 0 mm 6 mps 752 mmHg 29%
    16:00 +44°C° 0 mm 6 mps 752 mmHg 31%
    17:00 +44°C° 0 mm 6 mps 752 mmHg 33%
    18:00 +42°C° 0 mm 6 mps 752 mmHg 35%
    19:00 +41°C° 0 mm 5 mps 752 mmHg 37%
    20:00 +40°C° 0 mm 4 mps 753 mmHg 39%
    21:00 +40°C° 0 mm 4 mps 753 mmHg 40%
    22:00 +38°C° 0 mm 3 mps 753 mmHg 40%
    23:00 +38°C° 0 mm 3 mps 753 mmHg 40%

    Day after tomorrow, 20 June, Wednesday

    Time Temperature Precipitation Wind Pressure Humidity
    00:00 +38°C° 0 mm 2 mps 753 mmHg 39%
    01:00 +38°C° 0 mm 3 mps 753 mmHg 41%
    02:00 +37°C° 0 mm 3 mps 753 mmHg 43%
    03:00 +37°C° 0 mm 3 mps 752 mmHg 44%
    04:00 +36°C° 0 mm 3 mps 753 mmHg 44%
    05:00 +36°C° 0 mm 3 mps 753 mmHg 45%
    06:00 +36°C° 0 mm 3 mps 753 mmHg 45%
    07:00 +37°C° 0 mm 3 mps 754 mmHg 42%
    08:00 +38°C° 0 mm 3 mps 754 mmHg 38%
    09:00 +39°C° 0 mm 3 mps 755 mmHg 35%
    10:00 +40°C° 0 mm 3 mps 755 mmHg 32%
    11:00 +42°C° 0 mm 3 mps 754 mmHg 29%
    12:00 +44°C° 0 mm 4 mps 754 mmHg 27%
    13:00 +44°C° 0 mm 4 mps 754 mmHg 26%
    14:00 +44°C° 0 mm 4 mps 753 mmHg 26%
    15:00 +45°C° 0 mm 4 mps 752 mmHg 25%
    16:00 +44°C° 0 mm 4 mps 752 mmHg 27%
    17:00 +43°C° 0 mm 4 mps 752 mmHg 28%
    18:00 +42°C° 0 mm 4 mps 752 mmHg 29%
    19:00 +42°C° 0 mm 3 mps 753 mmHg 29%
    20:00 +40°C° 0 mm 3 mps 753 mmHg 28%
    21:00 +39°C° 0 mm 3 mps 754 mmHg 27%
    22:00 +39°C° 0 mm 3 mps 754 mmHg 28%
    23:00 +38°C° 0 mm 3 mps 754 mmHg 30%

    21 June, Thursday

    Time Temperature Precipitation Wind Pressure Humidity
    00:00 +38°C° 0 mm 3 mps 754 mmHg 31%
    01:00 +37°C° 0 mm 3 mps 753 mmHg 32%
    02:00 +37°C° 0 mm 2 mps 753 mmHg 33%
    03:00 +36°C° 0 mm 2 mps 753 mmHg 35%
    04:00 +36°C° 0 mm 2 mps 753 mmHg 34%
    05:00 +36°C° 0 mm 2 mps 753 mmHg 34%
    06:00 +36°C° 0 mm 2 mps 754 mmHg 33%
    07:00 +37°C° 0 mm 2 mps 754 mmHg 29%
    08:00 +39°C° 0 mm 2 mps 755 mmHg 26%
    09:00 +40°C° 0 mm 2 mps 755 mmHg 22%
    10:00 +41°C° 0 mm 2 mps 755 mmHg 20%
    11:00 +42°C° 0 mm 2 mps 754 mmHg 18%
    12:00 +45°C° 0 mm 2 mps 754 mmHg 16%
    13:00 +45°C° 0 mm 3 mps 753 mmHg 15%
    14:00 +45°C° 0 mm 4 mps 753 mmHg 15%
    15:00 +47°C° 0 mm 4 mps 752 mmHg 15%
    16:00 +46°C° 0 mm 5 mps 752 mmHg 17%
    17:00 +45°C° 0 mm 6 mps 752 mmHg 19%
    18:00 +42°C° 0 mm 6 mps 752 mmHg 22%
    19:00 +42°C° 0 mm 6 mps 752 mmHg 24%
    20:00 +41°C° 0 mm 6 mps 753 mmHg 26%
    21:00 +40°C° 0 mm 6 mps 753 mmHg 28%
    22:00 +40°C° 0 mm 6 mps 753 mmHg 30%
    23:00 +39°C° 0 mm 5 mps 753 mmHg 32%

    22 June, Friday

    Time Temperature Precipitation Wind Pressure Humidity
    00:00 +39°C° 0 mm 5 mps 753 mmHg 33%
    01:00 +37°C° 0 mm 5 mps 753 mmHg 36%
    02:00 +37°C° 0 mm 4 mps 752 mmHg 38%
    03:00 +36°C° 0 mm 4 mps 752 mmHg 41%
    04:00 +36°C° 0 mm 3 mps 752 mmHg 44%
    05:00 +35°C° 0 mm 3 mps 753 mmHg 46%
    06:00 +35°C° 0 mm 2 mps 753 mmHg 49%
    07:00 +36°C° 0 mm 2 mps 753 mmHg 45%
    08:00 +37°C° 0 mm 3 mps 754 mmHg 41%
    09:00 +39°C° 0 mm 3 mps 754 mmHg 37%
    10:00 +41°C° 0 mm 4 mps 754 mmHg 32%
    11:00 +43°C° 0 mm 5 mps 753 mmHg 28%
    12:00 +45°C° 0 mm 6 mps 753 mmHg 24%
    13:00 +45°C° 0 mm 6 mps 752 mmHg 24%
    14:00 +45°C° 0 mm 7 mps 751 mmHg 25%
    15:00 +45°C° 0 mm 7 mps 751 mmHg 25%
    16:00 +44°C° 0 mm 7 mps 751 mmHg 30%
    17:00 +41°C° 0 mm 8 mps 750 mmHg 35%
    18:00 +40°C° 0 mm 8 mps 750 mmHg 41%
    19:00 +39°C° 0 mm 7 mps 751 mmHg 43%
    20:00 +39°C° 0 mm 7 mps 752 mmHg 46%
    21:00 +38°C° 0 mm 7 mps 752 mmHg 49%
    22:00 +38°C° 0 mm 7 mps 752 mmHg 49%
    23:00 +38°C° 0 mm 6 mps 752 mmHg 48%

    23 June, Saturday

    Time Temperature Precipitation Wind Pressure Humidity
    00:00 +38°C° 0 mm 6 mps 752 mmHg 48%
    01:00 +36°C° 0 mm 6 mps 751 mmHg 48%
    02:00 +36°C° 0 mm 5 mps 751 mmHg 48%
    03:00 +36°C° 0 mm 4 mps 751 mmHg 48%
    04:00 +35°C° 0 mm 3 mps 751 mmHg 49%
    05:00 +35°C° 0 mm 2 mps 752 mmHg 51%
    06:00 +35°C° 0 mm 2 mps 752 mmHg 52%
    07:00 +36°C° 0 mm 2 mps 753 mmHg 46%
    08:00 +38°C° 0 mm 2 mps 753 mmHg 39%
    09:00 +39°C° 0 mm 2 mps 754 mmHg 33%
    10:00 +40°C° 0 mm 2 mps 754 mmHg 30%
    11:00 +43°C° 0 mm 3 mps 753 mmHg 26%
    12:00 +44°C° 0 mm 4 mps 753 mmHg 23%
    13:00 +45°C° 0 mm 5 mps 752 mmHg 22%
    14:00 +46°C° 0 mm 5 mps 752 mmHg 22%
    15:00 +46°C° 0 mm 6 mps 751 mmHg 21%
    16:00 +45°C° 0 mm 6 mps 751 mmHg 23%
    17:00 +44°C° 0 mm 6 mps 751 mmHg 25%
    18:00 +42°C° 0 mm 6 mps 751 mmHg 26%
    19:00 +41°C° 0 mm 5 mps 751 mmHg 28%
    20:00 +41°C° 0 mm 5 mps 752 mmHg 29%
    21:00 +40°C° 0 mm 4 mps 752 mmHg 31%
    22:00 +39°C° 0 mm 5 mps 752 mmHg 33%
    23:00 +39°C° 0 mm 5 mps 752 mmHg 35%
    Show more